Location: Newark
(52.4787°S, 179.0532°W)
Time: 23:03:18
(UTC+00:00)

Transit 2A Rocket - Pass Details

Date: 23 November 2019
Orbit: 594 x 909 km, 66.7° (Epoch: 05 December)

Event Time Altitude Azimuth Distance (km) Brightness Sun altitude
Rises 18:53:57 0° 26° (NNE) 3,339 8.7 26.8°
Reaches altitude 10° 18:57:37 10° 51° (NE) 2,480 8.6 27.4°
Maximum altitude 19:00:19 14° 79° (E) 2,277 9.3 27.8°
Drops below altitude 10° 19:03:06 10° 107° (ESE) 2,568 9.1 28.2°
Sets 19:07:01 0° 131° (SE) 3,552 9.1 28.8°
